{"data":{"norad_id":56488,"intl_designator":"2023-064AS","name":"STARLINK-6204","alt_names":[],"object_type":"PAYLOAD","status":"ACTIVE","operator":null,"country":"US","launch_date":"2023-05-10","launch_site_code":"AFWTR","launch_vehicle":null,"mission":null,"orbit_class":"UNKNOWN","rcs_meters":null,"size_class":null,"mass_kg":null,"dimensions":null,"purposes":["comms"],"wikipedia_slug":null,"has_3d_model":false,"image_url":null,"decayed_at":null,"tle_current":{"epoch":"2026-09-20T14:04:07.807872Z","epoch_age_seconds":104625,"freshness":"FRESH","line1":"1 56488U 23064AS  26263.58620148 -.00000475  00000+0 -31982-4 0  9993","line2":"2 56488  70.0000 333.1543 0003551 268.7940  91.2812 14.98330786185424","mean_motion":14.98330786,"eccentricity":0.0003551,"inclination_deg":70,"raan_deg":333.1543,"arg_perigee_deg":268.794,"mean_anomaly_deg":91.2812,"bstar":-3.1982e-5,"rev_number":18542,"period_min":96.106948709522,"perigee_km":569.58544767286,"apogee_km":574.52147293777,"semimajor_km":6950.1904603053,"source":"CELESTRAK","updated_at":"2026-09-21T09:00:33.449076Z"}}}